Weather History for KCTY - August, 2013

Change the Weather History Date:

Thursday, August 15, 2013

  Actual Average Record
Temperature  
Mean Temperature 83 °F 81 °F  
Max Temperature 92 °F 91 °F 95 °F (2007)
Min Temperature 74 °F 72 °F 71 °F (1999)
Degree Days  
Heating Degree Days 0 0  
Month to date heating degree days 0 0  
Since 1 June heating degree days 0 0  
Since 1 July heating degree days 0 0  
Cooling Degree Days 18 16  
Month to date cooling degree days 281 250  
Year to date cooling degree days 1784 1684  
Since 1 June cooling degree days 1249 1205  
Growing Degree Days 32 (Base 50)    
Moisture  
Dew Point 74 °F    
Average Humidity 78    
Maximum Humidity 94    
Minimum Humidity 52    
Precipitation  
Precipitation 0.01 in 0.24 in 1.97 in (2015)
Month to date precipitation 2.17 3.39  
Year to date precipitation 45.07 31.31  
Sea Level Pressure  
Sea Level Pressure 29.97 in    
Wind  
Wind Speed 5 mph (SSW)    
Max Wind Speed 16 mph    
Max Gust Speed 22 mph    
T = Trace of Precipitation, MM = Missing Value Source: NWS Daily Summary

Daily Weather History Graph

Daily Weather History Graph

Search for Another Location

Airport or City:

Trip Planner

Search our weather history database for the weather conditions in past years. The results will help you decide how hot, cold, wet, or windy it might be!

Date:

Astronomy

Aug. 15, 2013 Rise Set
Actual Time 7:00 AM EDT 8:12 PM EDT
Civil Twilight 6:35 AM EDT 8:37 PM EDT
Nautical Twilight 6:05 AM EDT 9:07 PM EDT
Astronomical Twilight 5:34 AM EDT 9:38 PM EDT
Moon 3:20 PM EDT (8/15) 1:15 AM EDT (8/15)
Length of Visible Light 14h 02m
Length of Day
13h 12m
Waxing Gibbous, 64% of the Moon is Illuminated
Aug 15
Waxing Gibbous
Aug 20
Full
Aug 28
Last Quarter
Sep 5
New
Sep 12
First Quarter

Hourly Weather History & Observations

Time (EDT) Temp. Heat Index Dew Point Humidity Pressure Visibility Wind Dir Wind Speed Gust Speed Precip Events Conditions
12:53 AM 77.0 °F - 73.9 °F 90% 29.99 in - Calm Calm - N/A   Unknown
1:53 AM 77.0 °F - 73.9 °F 90% 29.97 in - SSE 3.5 mph - N/A   Unknown
2:53 AM 75.9 °F - 73.9 °F 94% 29.95 in - Calm Calm - N/A   Unknown
3:53 AM 75.9 °F - 73.9 °F 94% 29.94 in - Calm Calm - N/A   Unknown
4:53 AM 75.9 °F - 73.9 °F 94% 29.94 in - Calm Calm - N/A   Unknown
5:53 AM 75.0 °F - 73.0 °F 94% 29.95 in - Calm Calm - N/A   Unknown
6:53 AM 75.0 °F - 73.0 °F 94% 29.96 in - Calm Calm - N/A   Unknown
7:53 AM 75.9 °F - 73.9 °F 94% 29.99 in - Calm Calm - N/A   Unknown
8:53 AM 81.0 °F 87.3 °F 75.9 °F 85% 29.99 in - SSE 4.6 mph - N/A   Unknown
9:53 AM 86.0 °F 96.9 °F 77.0 °F 74% 30.00 in - South 4.6 mph - N/A   Unknown
10:53 AM 86.0 °F 93.8 °F 73.9 °F 67% 30.00 in - South 6.9 mph - N/A   Unknown
11:53 AM 88.0 °F 97.5 °F 75.0 °F 65% 30.00 in - Variable 6.9 mph - N/A   Unknown
1:53 PM 91.0 °F 100.4 °F 73.9 °F 57% 29.97 in - SSW 13.8 mph 19.6 mph N/A   Unknown
2:53 PM 91.0 °F 101.6 °F 75.0 °F 59% 29.96 in - SW 9.2 mph - N/A   Unknown
3:53 PM 91.0 °F 98.2 °F 72.0 °F 53% 29.95 in - SSW 11.5 mph 19.6 mph N/A   Unknown
4:53 PM 90.0 °F 96.9 °F 72.0 °F 55% 29.94 in - SW 15.0 mph 20.7 mph N/A   Unknown
5:53 PM 88.0 °F 95.6 °F 73.0 °F 61% 29.95 in - SW 8.1 mph - N/A   Unknown
6:53 PM 87.1 °F 94.5 °F 73.0 °F 63% 29.95 in - SW 9.2 mph - N/A   Unknown
7:53 PM 82.9 °F 88.8 °F 73.0 °F 72% 29.97 in - SW 4.6 mph - N/A   Unknown
8:53 PM 80.1 °F 84.5 °F 73.9 °F 81% 30.00 in - Calm Calm - N/A   Unknown
9:53 PM 79.0 °F - 75.0 °F 88% 30.01 in - Calm Calm - N/A   Unknown
10:53 PM 78.1 °F - 73.9 °F 87% 30.02 in - Calm Calm - N/A   Unknown
11:53 PM 78.1 °F - 75.0 °F 90% 30.01 in - Calm Calm - 0.01 in   Unknown